TimeEDT,TemperatureF,Dew PointF,Humidity,Sea Level PressureIn,VisibilityMPH,Wind Direction,Wind SpeedMPH,Gust SpeedMPH,PrecipitationIn,Events,Conditions,WindDirDegrees,DateUTC
12:54 AM,77.0,64.9,66,29.95,10.0,West,6.9,-,N/A,,Mostly Cloudy,280,2013-08-27 04:54:00
1:54 AM,75.9,64.9,69,29.93,10.0,West,6.9,-,N/A,,Overcast,270,2013-08-27 05:54:00
2:54 AM,75.9,64.9,69,29.92,10.0,West,5.8,-,N/A,,Scattered Clouds,270,2013-08-27 06:54:00
3:54 AM,75.0,64.9,71,29.92,10.0,West,6.9,-,N/A,,Overcast,280,2013-08-27 07:54:00
4:54 AM,73.9,64.9,73,29.91,10.0,West,5.8,-,N/A,,Scattered Clouds,270,2013-08-27 08:54:00
5:54 AM,71.1,64.9,81,29.91,10.0,WSW,4.6,-,N/A,,Partly Cloudy,250,2013-08-27 09:54:00
6:54 AM,71.1,66.0,84,29.92,10.0,West,6.9,-,N/A,,Partly Cloudy,260,2013-08-27 10:54:00
7:54 AM,73.0,66.0,79,29.94,10.0,WSW,4.6,-,N/A,,Partly Cloudy,250,2013-08-27 11:54:00
8:54 AM,78.1,66.9,68,29.94,10.0,NW,9.2,-,N/A,,Scattered Clouds,310,2013-08-27 12:54:00
9:54 AM,78.1,66.9,68,29.94,10.0,NNW,6.9,-,N/A,,Scattered Clouds,340,2013-08-27 13:54:00
10:54 AM,80.1,66.9,64,29.95,10.0,NNW,11.5,-,N/A,,Mostly Cloudy,340,2013-08-27 14:54:00
11:54 AM,82.9,66.0,56,29.94,10.0,NNW,10.4,-,N/A,,Clear,340,2013-08-27 15:54:00
12:54 PM,84.0,64.9,53,29.93,10.0,NNW,9.2,-,N/A,,Scattered Clouds,340,2013-08-27 16:54:00
1:54 PM,86.0,64.9,49,29.92,10.0,NNE,3.5,-,N/A,,Partly Cloudy,20,2013-08-27 17:54:00
2:54 PM,87.1,64.9,48,29.90,10.0,North,4.6,-,N/A,,Partly Cloudy,350,2013-08-27 18:54:00
3:54 PM,87.1,66.0,49,29.88,10.0,WSW,4.6,-,N/A,,Mostly Cloudy,240,2013-08-27 19:54:00
4:54 PM,84.9,68.0,57,29.89,10.0,West,10.4,-,N/A,,Clear,270,2013-08-27 20:54:00
5:54 PM,82.0,68.0,62,29.89,10.0,West,4.6,-,N/A,,Clear,260,2013-08-27 21:54:00
6:54 PM,79.0,70.0,74,29.88,10.0,Calm,Calm,-,N/A,,Clear,0,2013-08-27 22:54:00
7:54 PM,80.1,68.0,67,29.89,10.0,Calm,Calm,-,N/A,,Clear,0,2013-08-27 23:54:00
8:54 PM,78.1,70.0,76,29.90,10.0,West,4.6,-,N/A,,Clear,260,2013-08-28 00:54:00
9:54 PM,73.9,69.1,85,29.91,10.0,Calm,Calm,-,N/A,,Clear,0,2013-08-28 01:54:00
10:54 PM,73.0,70.0,90,29.92,10.0,Calm,Calm,-,N/A,,Clear,0,2013-08-28 02:54:00
11:54 PM,72.0,69.1,91,29.91,10.0,Calm,Calm,-,N/A,,Scattered Clouds,0,2013-08-28 03:54:00